Content
SEND FEEDBACK

Daily
Averages
Monthly
Summary
United States of America

BETHEL, NEW MEXICO


Home > North America > United States > New Mexico
Elevation: 4200 feet     Latitude: 34 14N     Longitude: 103 26W

WEATHER
 
SELECT A DAY
Number of Records: 168,797;   Date Range: 1/2/95 - 11/27/14
 
SHARE

PRINT THIS DATA

[ ← Previous Day ]
WEATHER ALMANAC - JANUARY 31, 2013
[ Next Day → ]
[ °C ]   °F
Weather ElementAverageHighLow
Temperature41.7 °F56.8 °F (2:58 pm)29.7 °F (2:58 am)
Dewpoint13.9 °F19.8 °F (8:58 am)6.8 °F (4:58 pm)
Humidity37.1 %64 % (6:58 am)14 % (4:58 pm)
Barometer30.13 in30.22 in (10:58 pm)30.04 in (1:58 am)
Wind Speed9.2 mph15 mph (11:58 am)
Wind Gust20.7 mph (10:58 am)
Weather ElementAverage
Visibility10 mi
Wind DirectionSSW (188.3 °)

Weather ElementTotal
Precipitation---
Heating Degree Days21.8 (Base 65)
Averaged from 23 records on January 31, 2013
WEATHER CONDITIONS BREAKOUT
WIND DIRECTION BREAKOUT
WEATHER BY HOUR - JANUARY 31, 2013
[ °C ]   °F
Local TimeTemperatureDewpointHumidityBarometerVisibilityWind DirectionWind SpeedGust SpeedPrecipitationEventsConditions
1:58 AM31.1 °F16.5 °F55 %30.04 in10.0 miWest (270°)11.5 mphClear
2:58 AM29.7 °F17.1 °F59 %30.05 in10.0 miWNW (290°)11.5 mphClear
3:58 AM30.4 °F17.8 °F60 %30.04 in10.0 miWNW (290°)11.5 mphClear
4:58 AM29.7 °F18.5 °F63 %30.05 in10.0 miWNW (290°)13.8 mphClear
5:58 AM30.2 °F18.7 °F62 %30.08 in10.0 miWest (280°)13.8 mphClear
6:58 AM30.2 °F19.2 °F64 %30.10 in10.0 miWNW (300°)13.8 mphClear
7:58 AM32.4 °F19.4 °F59 %30.14 in10.0 miWNW (300°)13.8 mphClear
8:58 AM38.8 °F19.8 °F46 %30.14 in10.0 miWNW (300°)12.7 mphClear
9:58 AM45.1 °F19.6 °F36 %30.15 in10.0 miWest (280°)13.8 mphClear
10:58 AM50.4 °F17.1 °F27 %30.12 in10.0 miWest (280°)13.8 mph20.7 mphClear
11:58 AM53.2 °F15.6 °F23 %30.09 in10.0 miWNW (290°)15.0 mphClear
12:58 PM55.6 °F11.7 °F18 %30.08 in10.0 miNW (320°)10.4 mphClear
1:58 PM56.7 °F9.7 °F15 %30.09 in10.0 miVariable4.6 mphClear
2:58 PM56.8 °F9.1 °F15 %30.12 in10.0 miNNE (20°)1.2 mphClear
3:58 PM56.8 °F8.4 °F15 %30.13 in10.0 miNorth (10°)4.6 mphClear
4:58 PM55.0 °F6.8 °F14 %30.14 in10.0 miNorth (10°)5.8 mphClear
5:58 PM47.3 °F8.4 °F21 %30.18 in9.0 miNE (40°)4.6 mphClear
6:58 PM43.0 °F7.9 °F24 %30.20 in10.0 miENE (70°)2.3 mphClear
7:58 PM41.0 °F8.8 °F27 %30.21 in10.0 miESE (120°)5.8 mphClear
8:58 PM39.7 °F10.2 °F30 %30.19 in10.0 miESE (120°)8.1 mphClear
9:58 PM38.3 °F11.7 °F34 %30.18 in10.0 miSE (130°)8.1 mphClear
10:58 PM35.8 °F12.4 °F38 %30.22 in10.0 miSSE (150°)5.8 mphClear
11:58 PM32.9 °F14.9 °F48 %30.22 in10.0 miSouth (170°)4.6 mphClear
Hourly data recorded from KCVS, located miles away from Bethel, New Mexico







STORIES FROM OUR PARTNERS